Regional Weather Roundup
Issued by NWS

Home | Current Version | Previous Version | Graphics & Text | Print | Product List | Glossary Off
Versions: 1 2 3 4 5 6 7 8 9 10 11 12 13 14 15 16 17 18 19 20 21 22 23 24 25 26 27 28 29 30 31 32 33 34 35 36 37 38 39 40 41 42 43 44 45 46 47 48 49 50

000
ASUS43 KTOP 222108
RWRKS

WEATHER ROUNDUP FOR KANSAS
NATIONAL WEATHER SERVICE GOODLAND KS
400 PM CDT TUE JUL 22 2014

NOTE:  "FAIR" INDICATES FEW OR NO CLOUDS BELOW 12,000 FEET WITH NO
SIGNIFICANT WEATHER AND/OR OBSTRUCTIONS TO VISIBILITY.

KSZ001>006-013>018-027>032-041>047-222200-
NORTHWEST KANSAS

CITY           SKY/WX    TMP DP  RH WIND       PRES   REMARKS
GOODLAND       SUNNY     95  60  31 SE8       30.18S HX  95
HAYS           SUNNY     97  66  36 SE6       30.09S HX 100
HILL CITY      SUNNY    100  64  30 SW8       30.08F HX 102
RUSSELL        SUNNY     97  69  40 VRB6      30.06F HX 103
$$

KSZ061>065-074>080-084>089-222200-
SOUTHWEST KANSAS

CITY           SKY/WX    TMP DP  RH WIND       PRES   REMARKS
DODGE CITY     SUNNY     94  63  35 S13       30.12S HX  95
ELKHART          N/A     93  64  38 SE10        N/A
GARDEN CITY    SUNNY     93  67  42 S8        30.12F HX  96
GREAT BEND     MOSUNNY   99  70  39 S12       30.06S HX 105
LIBERAL        SUNNY     97  66  36 S12       30.13F HX 100
PRATT          SUNNY     95  59  30 S10       30.11R
$$

KSZ066>073-081>083-090>101-222200-
SOUTHEAST KANSAS

CITY           SKY/WX    TMP DP  RH WIND       PRES   REMARKS
CHANUTE        MOSUNNY   97  73  45 VRB5      30.04F HX 107
COFFEYVILLE    PTSUNNY   96  74  48 W8        30.04F HX 107
HUTCHINSON     MOSUNNY  100  66  32 SW9       30.06R HX 104
MEDICINE LODGE   N/A     97  67  37 SW10      30.05S HX 101
NEWTON         MOSUNNY   99  64  32 S9        30.10S HX 101
PARSONS        MOSUNNY   97  73  45 W8        30.06S HX 107
WICHITA INTL   MOSUNNY   97  71  42 S7        30.04F HX 104
WICHITA JABRA  SUNNY     97  73  45 S6        30.05F HX 107
WICHITA MCCONL SUNNY     96  70  42 SE8       30.06S HX 102
WINFIELD       SUNNY     95  75  52 VRB5      30.06F HX 107
$$

KSZ007>012-019>026-033>040-048>060-102>105-222200-
NORTHEAST KANSAS

CITY           SKY/WX    TMP DP  RH WIND       PRES   REMARKS
CONCORDIA      SUNNY    100  60  26 SW5       30.03F HX 100
EMPORIA        SUNNY    100  69  36 VRB6      30.03S HX 106
LAWRENCE       PTSUNNY   99  73  43 SW10      29.99F HX 109
MANHATTAN      SUNNY    103  65  29 SW9       30.00F HX 106
MARYSVILLE     SUNNY     97  75  49 NW12      30.02S HX 109
OLATHE IND     PTSUNNY   97  71  42 SW7       30.02F HX 104
OLATHE EXE     PTSUNNY   95  74  50 SW12      30.01F HX 105
SALINA         MOSUNNY  102  69  34 VRB3      30.02F HX 109
TOPEKA BILLARD PTSUNNY  102  66  30 W13       29.99F HX 106
TOPEKA FORBES  PTSUNNY  102  69  34 SW13      30.01F HX 109
$$


USA.gov is the U.S. government's official web portal to all federal, state and local government web resources and services.